This is the latest recevied weather packets stored in our database for station/object DL3APY-12. If no packets are shown the sender has not sent any weather packets the latest 1 day(s).
| Time | Temp. | Humidity | Pressure | Rain* | Wind** | Luminosity | Snow |
|---|---|---|---|---|---|---|---|
| 1778107073 | 23.33° C | 55% | 1010.2 hPa | - | - | - | - |
| 1778106998 | 23.33° C | 55% | 1009.1 hPa | - | - | - | - |
| 1778106459 | 23.33° C | 55% | 1008 hPa | - | - | - | - |
| 1778106239 | 23.33° C | 55% | 1005 hPa | - | - | - | - |
| 1778105344 | 23.33° C | 55% | 1007.9 hPa | - | - | - | - |
| 1778105223 | 23.33° C | 55% | 1009.9 hPa | - | - | - | - |
| 1778105050 | 23.33° C | 55% | 1007.8 hPa | - | - | - | - |
| 1778104688 | 23.33° C | 55% | 1008.9 hPa | - | - | - | - |
| 1778104619 | 23.33° C | 55% | 1008.8 hPa | - | - | - | - |
| 1778104165 | 23.33° C | 55% | 1010 hPa | - | - | - | - |
| 1778103843 | 23.33° C | 55% | 1008.9 hPa | - | - | - | - |
| 1778102870 | 22.78° C | 56% | 1011 hPa | - | - | - | - |
| 1778100068 | 22.22° C | 58% | 1010.8 hPa | - | - | - | - |
| 1778099939 | 22.22° C | 59% | 1010.8 hPa | - | - | - | - |
| 1778099501 | 22.22° C | 60% | 1011.8 hPa | - | - | - | - |
| 1778099380 | 21.67° C | 61% | 1011.7 hPa | - | - | - | - |
| 1778099264 | 21.67° C | 61% | 1005.7 hPa | - | - | - | - |
| 1778098398 | 21.11° C | 64% | 1003.6 hPa | - | - | - | - |
| 1778097863 | 21.67° C | 62% | 1010.6 hPa | - | - | - | - |
| 1778097793 | 21.67° C | 62% | 1010.6 hPa | - | - | - | - |
| 1778097208 | 21.67° C | 62% | 1012.5 hPa | - | - | - | - |
| 1778096893 | 21.67° C | 62% | 1012.5 hPa | - | - | - | - |
| 1778096350 | 21.67° C | 62% | 1011.5 hPa | - | - | - | - |
| 1778096226 | 21.67° C | 62% | 1011.4 hPa | - | - | - | - |
| 1778095312 | 21.67° C | 61% | 1009.4 hPa | - | - | - | - |
* Rain since midnight (hover to see other rain measurements)
** Current wind speed in m/s (hover to see current wind gust speed)